Regional Weather Roundup
Issued by NWS Columbia, SC

Home | Current Version | Previous Version | Text Only | Print | Product List | Glossary On
Versions: 1 2 3 4 5 6 7 8 9 10 11 12 13 14 15 16 17 18 19 20 21 22 23 24 25 26 27 28 29 30 31 32 33 34 35 36 37 38 39 40 41 42 43 44 45 46 47 48 49 50
000
ASUS42 KCAE 270110
RWRCAE
REGIONAL WEATHER ROUNDUP
NATIONAL WEATHER SERVICE COLUMBIA SC
800 PM EST SUN FEB 26 2017

NOTE: "FAIR" INDICATES FEW OR NO CLOUDS BELOW 12,000 FEET WITH NO
SIGNIFICANT WEATHER AND/OR OBSTRUCTIONS TO VISIBILITY.

NOT ALL STATIONS ARE QUALITY CONTROLLED BY THE NATIONAL
WEATHER SERVICE. USE DATA WITH CAUTION...ESPECIALLY
DEWPOINT OBSERVATIONS.

SCZ001>056-GAZ040-063>065-077-270200-
...UPSTATE SOUTH CAROLINA...

CITY           SKY/WX    TMP DP  RH WIND       PRES   REMARKS
ANDERSON       CLEAR     50  20  30 CALM      30.22R
LIBERTY        CLEAR     47  22  36 S5        30.21R
SPARTANBURG    CLEAR     45  23  42 CALM      30.22R
CLEMSON        CLEAR     55  17  22 S3        30.23R
GREENVILLE     CLEAR     53  17  24 CALM      30.23R
GREENWOOD      PTCLDY    47  21  35 CALM      30.25R
GREER          CLEAR     49  18  29 SE5       30.21R
ROCK HILL      CLEAR     45  21  38 CALM      30.24R
CHESTER        CLEAR     45  23  42 S3        30.24R
LAURENS        CLEAR     46  25  42 CALM      30.23R


...CENTRAL SOUTH CAROLINA...

CITY           SKY/WX    TMP DP  RH WIND       PRES   REMARKS
COLUMBIA APT   CLEAR     49  30  48 CALM      30.25R
COLUMBIA OWENS CLEAR     50  29  44 CALM      30.26R
MCENTIRE ANGB  CLEAR     44  30  58 CALM      30.25R
ORANGEBURG     CLEAR     49  29  46 E5        30.24R
SUMTER SHAW    CLEAR     49  25  39 CALM      30.23R
AIKEN          FAIR      45  28  53 CALM      30.28R
BARNWELL       FAIR      48  30  49 CALM      30.25R
MANNING        FAIR      43  32  65 MISG      30.26R
CAMDEN         FAIR      46  32  57 CALM      30.26R
LANCASTER      CLEAR     46  23  39 NE3       30.25R
WINNSBORO      CLEAR     48  28  46 E5        30.24R


...EASTERN AND COASTAL SOUTH CAROLINA...

CITY           SKY/WX    TMP DP  RH WIND       PRES   REMARKS
MYRTLE BEACH   CLEAR     52  36  54 CALM      30.29R
N MYRTLE BCH   CLEAR     46  40  79 CALM      30.28R
CONWAY         FAIR      41  36  81 CALM      30.29R
MARION         FAIR      43  32  65 CALM      30.28R
HARTSVILLE     FAIR      45  27  49 CALM      30.26R
FLORENCE       CLEAR     47  29  49 CALM      30.27R
DARLINGTON     CLEAR     43  35  73 CALM      30.27R
CHARLESTON APT CLEAR     53  36  52 CALM      30.26R
MOUNT PLEASANT LGT RAIN  46  39  76 CALM      30.27S
WALTERBORO     CLEAR     50  34  53 CALM      30.26R
BEAUFORT       CLEAR     56  44  64 CALM      30.26R


...EASTERN GEORGIA...

CITY           SKY/WX    TMP DP  RH WIND       PRES   REMARKS
AUGUSTA BUSH F CLEAR     50  29  44 CALM      30.24R
AUGUSTA DANIEL CLEAR     59  20  22 E3        30.24R
THOMSON        CLEAR     50  35  55 CALM      30.28R
WASHINGTON     FAIR      48  32  53 CALM      30.23R
CLAXTON        FAIR     N/A N/A N/A CALM      30.25R
SYLVANIA       CLEAR    N/A N/A N/A CALM      30.26R
STATESBORO     CLEAR     47  39  74 CALM      30.24R
SAVANNAH       CLEAR     55  35  47 SE5       30.25R


...SOUTHERN NORTH CAROLINA...

CITY           SKY/WX    TMP DP  RH WIND       PRES   REMARKS
CHARLOTTE      PTCLDY    48  18  30 SE5       30.23R
MONROE         CLEAR     44  22  41 CALM      30.23R
WADESBORO      CLEAR     39  31  74 CALM      30.26R
ROCKINGHAM     CLEAR     44  28  52 CALM      30.26R
RUTHERFORDTON  CLEAR     50  16  26 E6        30.22R
ASHEVILLE      CLEAR     41  20  43 CALM      30.21R

$$



USA.gov is the U.S. government's official web portal to all federal, state and local government web resources and services.